Regional Weather Roundup
Issued by NWS

Home | Current Version | Previous Version | Text Only | Print | Product List | Glossary On
Versions: 1 2 3 4 5 6 7 8 9 10 11 12 13 14 15 16 17 18 19 20 21 22 23 24 25 26 27 28 29 30 31 32 33 34 35 36 37 38 39 40 41 42 43 44 45 46 47 48 49 50
109
ASUS43 KDTX 262310
RWRMI
MICHIGAN HOURLY REGIONAL WEATHER ROUNDUP
NATIONAL WEATHER SERVICE DETROIT/PONTIAC MI
700 PM EDT THU MAY 26 2016

NOTE: "FAIR" INDICATES FEW OR NO CLOUDS BELOW 12,000 FEET WITH NO
SIGNIFICANT WEATHER AND/OR OBSTRUCTION TO VISIBILITY.

MIZ047>049-052>055-059>063-066>070-074>076-081>083-270000-
SOUTHEAST LOWER MICHIGAN

CITY           SKY/WX    TMP DP  RH WIND       PRES   REMARKS
ADRIAN         CLOUDY    83  62  49 SW10      29.89F
ALMA           MOSUNNY   80  67  64 CALM      29.86S
ANN ARBOR      MOSUNNY   82  64  54 SW9       29.88S
BAD AXE        MOSUNNY   83  62  47 SW9       29.87R
CARO           MOSUNNY   82  63  51 SW9       29.86R
DETROIT CITY   MOSUNNY   83  62  49 SW12      29.88S
DETROIT        CLOUDY    85  63  47 SW10      29.89S
FLINT          PTSUNNY   85  63  47 SW6       29.87S
GROSSE ILE     MOSUNNY   77  64  65 S7        29.88S
HILLSDALE      MOSUNNY   81  55  40 S7        29.91S
HOWELL         CLOUDY    82  63  53 SW7       29.88S

CITY           SKY/WX    TMP DP  RH WIND       PRES   REMARKS
JACKSON        CLOUDY    83  60  45 SW14      29.88F
LAMBERTVILLE   MOSUNNY   84  64  51 SW8       29.90F
LANSING        PTSUNNY   81  63  54 W9        29.87F
LAPEER         FAIR      83  59  43 SW7       29.88S
MASON          MOSUNNY   84  60  44 W5        29.88S
MONROE         CLOUDY    84  67  55 S13G20    29.88F
MT. CLEMENS    PTSUNNY   80  65  62 S12       29.88S
PONTIAC        PTSUNNY   82  62  50 S9        29.88S
PORT HOPE        N/A     64  61  90 E5        29.84F
PORT HURON     MOSUNNY   81  64  57 S10       29.89R
TRI CITIES     SUNNY     84  65  52 W12       29.85F
MIDLAND        FAIR      81  64  54 SW8       29.84S
TROY           SUNNY     86  60  42 SW7       29.90S
SAGINAW HB     MOSUNNY   82  61  47 SW7       29.85R
$$
MIZ043>046-050>051-056>058-064>065-071>073-077>080-270000-
SOUTHWEST LOWER MICHIGAN

CITY           SKY/WX    TMP DP  RH WIND       PRES   REMARKS
BATTLE CREEK   MOSUNNY   80  59  48 SW13      29.88F
BENTON HARBOR  MOSUNNY   79  62  56 W9        29.85F
BIG RAPIDS     SUNNY     77  64  63 SW8       29.86S
COLDWATER      PTSUNNY   81  54  38 SW9       29.89F
FREMONT        FAIR      79  60  52 SW7       29.85F
HOLLAND        SUNNY     79  64  60 SW9       29.86F
GRAND RAPIDS   PTSUNNY   82  66  58 W12       29.86S
IONIA          PTSUNNY   82  60  47 SW12      29.86R
KALAMAZOO      SUNNY     84  57  39 SW10      29.86F
LUDINGTON      MOSUNNY   75  64  67 S13       29.83F
MARSHALL       MOSUNNY   83  60  45 SW8       29.88S
MOUNT PLEASANT SUNNY     81  64  55 SW9       29.85S
MUSKEGON       MOSUNNY   77  65  66 S8        29.85F
SOUTH HAVEN    MOSUNNY   78  64  61 W5        29.85F
$$
MIZ016>042-270000-
NORTHERN LOWER MICHIGAN

CITY           SKY/WX    TMP DP  RH WIND       PRES   REMARKS
ALPENA         PTSUNNY   73  67  81 E6        29.83S
BEAVER ISLAND  FOG       55  54  97 W9        29.83S VSB 1/4
BELLAIRE       SUNNY     79  59  49 W8        29.81R
CADILLAC       SUNNY     79  59  50 SW15      29.85S
CHARLEVOIX     MOSUNNY   63  60  91 W6        29.86R
FRANKFORT      CLOUDY    71  64  79 SW5       29.82F
GAYLORD        CLOUDY    76  65  68 VRB5      29.83S
GRAYLING       CLOUDY    80  58  46 SW13G25   29.84R
HARBOR SPRINGS FOG       60  60  97 SW8       29.83R VSB 3/4
HOUGHTON LAKE  MOSUNNY   79  60  52 SW13      29.85F
MANISTEE       MOSUNNY   79  61  53 SW9G17    29.84S
OSCODA         MOSUNNY   74  69  83 S8        29.84F
PELLSTON       SUNNY     73  61  65 W12G21    29.82R
ROGERS CITY    RAIN      67  64  90 CALM      29.83F
TRAVERSE CITY  PTSUNNY   82  59  45 W17G25    29.80R
$$
MIZ007>008-015-270000-
EASTERN UPPER MICHIGAN

CITY           SKY/WX    TMP DP  RH WIND       PRES   REMARKS
KINROSS          N/A     66  66 100 SE8       29.80F
MACKINAC ISLAN PTSUNNY   60  54  80 CALM      29.82R
NEWBERRY       CLOUDY    60  60  97 N8        29.81F
S. S. MARIE    LGT RAIN  67  64  90 SE6       29.79F FOG
MUNISING         N/A     54  52  93 E3        29.80F
$$
MIZ004>006-011>014-085-270000-
CENTRAL UPPER MICHIGAN

CITY           SKY/WX    TMP DP  RH WIND       PRES   REMARKS
MANISTIQUE     PTSUNNY   63  62  96 N3        29.78F
ESCANABA       SUNNY     70  61  73 CALM      29.80F
MENOMINEE      SUNNY     70  63  78 E9        29.80F
SAWYER-GWINN   MOSUNNY   66  59  77 SW5       29.81S
$$
MIZ001>003-009>011-084-270000-
WESTERN UPPER MICHIGAN

CITY           SKY/WX    TMP DP  RH WIND       PRES   REMARKS
IRON MOUNTAIN  MOSUNNY   73  59  61 CALM      29.78F
HOUGHTON       PTSUNNY   68  61  78 S3        29.79S
COPPER HARBOR    N/A     50  50 100 CALM      29.79F
IRONWOOD       SUNNY     72  63  73 NW8       29.75F
$$

ABBREVIATIONS USED IN REMARKS
   TC - TEMPERATURE IN CELSIUS
  WCI - WIND CHILL INDEX
   HX - HEAT INDEX
  VSB - VISIBILITY





USA.gov is the U.S. government's official web portal to all federal, state and local government web resources and services.